Location: Pasarilla del Rebollar
(40.6790°N, 5.0062°W)
Time: 08:26:51
(UTC+00:00)

Cosmos 2082 Rocket - Pass Details

Date: 22 April 2026
Orbit: 831 x 853 km, 71.0° (Epoch: 15 May)

Event Time Altitude Azimuth Distance (km) Brightness Sun altitude
Exits shadow 02:41:20 21° 306° (NW) 1,850 3.9 -27.7°
Maximum altitude 02:41:31 21° 308° (NW) 1,849 3.9 -27.7°
Drops below altitude 10° 02:45:43 10° 356° (N) 2,490 5.2 -27.2°
Sets 02:48:51 0° 13° (NNE) 3,430 6.3 -26.8°
